Location: Augsburg
(48.3836°N, 10.8929°E)
Time: 15:52:55
(UTC+02:00)

ISS - Pass Details

Date: 19 May 2021
Orbit: 417 x 422 km, 51.6° (Epoch: 13 June)

Event Time Altitude Azimuth Distance (km) Brightness Sun altitude
Rises 23:42:07 0° 280° (W) 2,367 0.5 -18.7°
Reaches altitude 10° 23:44:16 10° 287° (WNW) 1,503 -0.4 -18.8°
Maximum altitude 23:47:32 46° 2° (N) 576 -2.7 -19.0°
Enters shadow 23:50:21 13° 75° (ENE) 1,326 -1.3 -19.2°
